User: anonymous   Login
Location: Unspecified
(0.0000°N, 0.0000°E)
Time: 11:13:16
(UTC+01:00)
Language:

THEMIS E - Orbit

View from above orbital plane
View from above orbital plane
View from above satellite
View from above satellite

Ground track
Ground track

The orbit data is extracted from the following two-line orbital elements,

1 30798U 07004E   20047.30983203 -.00000033  00000-0  00000+0 0  9995
2 30798  10.8527  46.7124 8392476  22.2968 359.0565  0.85720359 45599
Epoch (UTC): 16 February 2020 07:26:09
Eccentricity: 0.8392476
inclination: 10.8527°
perigee height: 1147 km
apogee height: 79717 km
right ascension of ascending node: 46.7124°
argument of perigee: 22.2968°
revolutions per day: 0.85720359
mean anomaly at epoch: 359.0565°
orbit number at epoch: 4559

The dashed part of the orbit path shows where the satellite is in the earth's shadow,  

DLR